Location: Newark
(56.0692°N, 115.8617°E)
Time: 10:35:15
(UTC+00:00)

Vanguard 2 Rocket - Pass Details

Date: 31 May 2020
Orbit: 556 x 3325 km, 32.9° (Epoch: 14 July)

Event Time Altitude Azimuth Distance (km) Brightness Sun altitude
Rises 07:07:59 0° 205° (SSW) 4,072 10.8 43.4°
Reaches altitude 10° 07:11:54 10° 184° (S) 3,561 10.4 42.9°
Maximum altitude 07:16:58 16° 151° (SSE) 3,681 10.1 42.3°
Drops below altitude 10° 07:23:29 10° 120° (ESE) 4,802 10.4 41.4°
Sets 07:30:24 0° 103° (ESE) 6,412 10.9 40.6°
